Date String (YYYY-MM-DD hh:mm:ss) UTC,Instrument flags,absolute air pressure of the measurement (hPa),sample flow rate (lpm),inlet stack bypass flow (lpm),air temperature of the measurement (°C),ambient temperature measured by the external sensor (°C),aerosol sample conditioner tube jacket temperature (°C),OPC LED temperature (°C),internal box temperature (°C),relative humidity of the measurement (%),span deviation,mass concentration of particles derived from Lorenz-Mie calculation of OPC scattering (μg/m³),mass concentration of particles derived from Lorenz-Mie calculation of OPC scattering (μg/m³),mass concentration of particles derived from Lorenz-Mie calculation of OPC scattering (μg/m³)
DateTimeUTC,F1_M11,P_M11,Q1_M11,Q2_M11,T1_M11,T2_M11,T3_M11,T4_M11,T5_M11,U1_M11,ZSPAN_M11,X2_M11,X0_M11,X1_M11
2024-05-03 10:00:00,SystemResetWarning,0824.9,5.00,000.00,024.6,023.8,000.0,033.1,026.3,013.6,0000.0,0003.39,0010.85,0002.13
2024-05-03 10:01:00,SystemResetWarning,0824.9,5.01,000.00,024.6,023.8,000.0,033.1,026.4,013.6,0000.0,0003.42,0011.01,0002.12
2024-05-03 10:02:00,SystemResetWarning,0824.8,5.01,000.00,024.6,023.8,000.0,033.1,026.3,013.6,0000.0,0003.45,0011.06,0002.12
2024-05-03 10:03:00,SystemResetWarning,0824.8,4.99,000.00,024.5,023.8,000.0,033.1,026.3,013.5,0000.0,0003.47,0011.16,0002.13
2024-05-03 10:04:00,SystemResetWarning,0824.8,4.99,000.00,024.5,023.8,000.0,033.1,026.3,014.0,0000.0,0003.47,0011.40,0002.13
2024-05-03 10:05:00,SystemResetWarning,0824.8,5.02,000.00,024.5,023.8,000.0,033.1,026.3,014.0,0000.0,0003.53,0011.49,0002.15
2024-05-03 10:06:00,SystemResetWarning,0824.8,5.01,000.00,024.5,023.8,000.0,033.0,026.3,013.9,0000.0,0003.53,0010.74,0002.15
2024-05-03 10:07:00,SystemResetWarning,0824.8,4.98,000.00,024.5,023.8,000.0,033.0,026.3,013.8,0000.0,0003.48,0010.01,0002.14
2024-05-03 10:08:00,SystemResetWarning,0824.8,4.99,000.00,024.5,023.8,000.0,033.0,026.3,013.7,0000.0,0003.46,0008.72,0002.14
2024-05-03 10:09:00,SystemResetWarning,0824.7,5.01,000.00,024.5,023.8,000.0,033.0,026.3,013.7,0000.0,0003.43,0008.33,0002.14
2024-05-03 10:10:00,SystemResetWarning,0824.7,5.01,000.00,024.5,023.8,000.0,033.0,026.4,013.7,0000.0,0003.42,0009.47,0002.13
2024-05-03 10:11:00,SystemResetWarning,0824.7,4.99,000.00,024.5,023.8,000.0,033.0,026.3,013.5,0000.0,0003.42,0009.62,0002.15
2024-05-03 10:12:00,SystemResetWarning,0824.7,4.99,000.00,024.5,023.8,000.0,033.0,026.3,013.5,0000.0,0003.44,0009.93,0002.15
2024-05-03 10:13:00,SystemResetWarning,0824.8,5.01,000.00,024.5,023.8,000.0,033.0,026.3,013.6,0000.0,0003.40,0009.89,0002.15
2024-05-03 10:14:00,SystemResetWarning,0824.8,5.01,000.00,024.5,023.8,000.0,033.0,026.3,013.6,0000.0,0003.41,0010.62,0002.16
2024-05-03 10:15:00,SystemResetWarning,0824.8,5.00,000.00,024.5,023.7,000.0,033.0,026.3,013.7,0000.0,0003.48,0011.88,0002.18
2024-05-03 10:16:00,SystemResetWarning,0824.8,5.00,000.00,024.5,023.7,000.0,033.0,026.3,013.7,0000.0,0003.48,0011.93,0002.18
2024-05-03 10:17:00,SystemResetWarning,0824.8,4.99,000.00,024.5,023.7,000.0,033.0,026.2,013.7,0000.0,0003.51,0012.37,0002.19
2024-05-03 10:18:00,SystemResetWarning,0824.8,4.99,000.00,024.4,023.6,000.0,033.0,026.2,013.9,0000.0,0003.51,0012.41,0002.20
2024-05-03 10:19:00,SystemResetWarning,0824.7,5.00,000.00,024.4,023.5,000.0,033.0,026.1,014.1,0000.0,0003.58,0012.74,0002.24
2024-05-03 10:20:00,SystemResetWarning,0824.8,5.00,000.00,024.4,023.5,000.0,033.0,026.1,013.9,0000.0,0003.66,0012.79,0002.26
2024-05-03 10:21:00,SystemResetWarning,0824.8,5.00,000.00,024.3,023.5,000.0,033.0,026.0,014.0,0000.0,0003.67,0011.53,0002.27
2024-05-03 10:22:00,SystemResetWarning,0824.7,5.01,000.00,024.3,023.4,000.0,032.9,026.0,014.0,0000.0,0003.71,0012.04,0002.29
2024-05-03 10:23:00,SystemResetWarning,0824.8,5.01,000.00,024.3,023.4,000.0,032.9,026.0,014.0,0000.0,0003.70,0012.69,0002.31
2024-05-03 10:24:00,SystemResetWarning,0824.7,5.01,000.00,024.2,023.4,000.0,032.9,025.9,014.0,0000.0,0003.74,0013.33,0002.32
2024-05-03 10:25:00,SystemResetWarning,0824.7,5.00,000.00,024.2,023.4,000.0,032.9,026.0,014.0,0000.0,0003.74,0013.09,0002.33
2024-05-03 10:26:00,SystemResetWarning,0824.7,4.99,000.00,024.2,023.3,000.0,032.9,025.9,014.0,0000.0,0003.71,0012.16,0002.34
2024-05-03 10:27:00,SystemResetWarning,0824.7,5.01,000.00,024.2,023.3,000.0,032.8,025.9,014.2,0000.0,0003.68,0011.82,0002.34
2024-05-03 10:28:00,SystemResetWarning,0824.7,5.00,000.00,024.1,023.3,000.0,032.8,025.8,014.4,0000.0,0003.66,0011.49,0002.35
2024-05-03 10:29:00,SystemResetWarning,0824.8,5.00,000.00,024.1,023.2,000.0,032.8,025.7,014.5,0000.0,0003.68,0011.74,0002.39
2024-05-03 10:30:00,SystemResetWarning,0824.7,5.00,000.00,024.1,023.2,000.0,032.7,025.6,014.6,0000.0,0003.66,0012.35,0002.39
2024-05-03 10:31:00,SystemResetWarning,0824.7,4.99,000.00,024.0,023.2,000.0,032.7,025.7,015.0,0000.0,0003.62,0012.17,0002.40
2024-05-03 10:32:00,SystemResetWarning,0824.7,5.01,000.00,024.0,023.2,000.0,032.7,025.7,015.1,0000.0,0003.65,0012.35,0002.45
2024-05-03 10:33:00,SystemResetWarning,0824.7,5.01,000.00,024.0,023.2,000.0,032.7,025.7,015.0,0000.0,0003.66,0012.24,0002.49
2024-05-03 10:34:00,SystemResetWarning,0824.7,5.01,000.00,024.0,023.2,000.0,032.7,025.7,014.6,0000.0,0003.68,0011.15,0002.52
2024-05-03 10:35:00,SystemResetWarning,0824.7,5.00,000.00,024.0,023.2,000.0,032.6,025.7,014.6,0000.0,0003.69,0010.61,0002.54
2024-05-03 10:36:00,SystemResetWarning,0824.7,5.00,000.00,024.0,023.1,000.0,032.6,025.6,015.2,0000.0,0003.76,0010.45,0002.56
2024-05-03 10:37:00,SystemResetWarning,0824.7,4.99,000.00,024.0,023.1,000.0,032.6,025.7,015.4,0000.0,0003.79,0010.02,0002.59
2024-05-03 10:38:00,SystemResetWarning,0824.7,5.00,000.00,024.0,023.1,000.0,032.6,025.6,015.5,0000.0,0003.90,0011.21,0002.63
2024-05-03 10:39:00,SystemResetWarning,0824.7,5.01,000.00,023.9,023.1,000.0,032.6,025.6,015.4,0000.0,0003.95,0011.86,0002.65
2024-05-03 10:40:00,SystemResetWarning,0824.7,5.01,000.00,023.9,023.1,000.0,032.5,025.6,015.2,0000.0,0003.93,0011.53,0002.65
2024-05-03 10:41:00,SystemResetWarning,0824.7,5.01,000.00,023.9,023.1,000.0,032.5,025.7,015.2,0000.0,0003.93,0010.71,0002.66
2024-05-03 10:42:00,SystemResetWarning,0824.7,4.98,000.00,023.9,023.1,000.0,032.5,025.6,015.4,0000.0,0003.91,0010.51,0002.67
2024-05-03 10:43:00,SystemResetWarning,0824.7,5.01,000.00,023.9,023.1,000.0,032.5,025.6,015.4,0000.0,0003.87,0011.20,0002.66
2024-05-03 10:44:00,SystemResetWarning,0824.7,5.01,000.00,023.9,023.1,000.0,032.5,025.6,015.7,0000.0,0003.86,0011.14,0002.65
2024-05-03 10:45:00,SystemResetWarning,0824.7,5.00,000.00,023.9,023.1,000.0,032.5,025.6,015.9,0000.0,0003.89,0011.65,0002.65
2024-05-03 10:46:00,SystemResetWarning,0824.7,5.00,000.00,023.9,023.1,000.0,032.4,025.6,016.1,0000.0,0003.89,0011.51,0002.69
2024-05-03 10:47:00,SystemResetWarning,0824.7,5.00,000.00,023.9,023.1,000.0,032.4,025.6,016.0,0000.0,0003.89,0011.54,0002.71
2024-05-03 10:48:00,SystemResetWarning,0824.7,5.00,000.00,023.9,023.1,000.0,032.4,025.6,015.9,0000.0,0003.85,0012.16,0002.71
2024-05-03 10:49:00,SystemResetWarning,0824.7,5.00,000.00,023.8,023.0,000.0,032.4,025.5,015.7,0000.0,0003.82,0011.55,0002.71
2024-05-03 10:50:00,SystemResetWarning,0824.7,4.99,000.00,023.8,023.0,000.0,032.4,025.5,015.5,0000.0,0003.76,0010.57,0002.71
2024-05-03 10:51:00,SystemResetWarning,0824.6,5.00,000.00,023.8,023.0,000.0,032.3,025.5,015.8,0000.0,0003.79,0010.66,0002.74
2024-05-03 10:52:00,SystemResetWarning,0824.6,5.00,000.00,023.8,023.0,000.0,032.3,025.6,015.7,0000.0,0003.84,0010.80,0002.75
2024-05-03 10:53:00,SystemResetWarning,0824.6,5.00,000.00,023.8,023.1,000.0,032.3,025.5,015.4,0000.0,0003.88,0011.48,0002.77
2024-05-03 10:54:00,SystemResetWarning,0824.5,5.00,000.00,023.8,023.1,000.0,032.3,025.5,015.5,0000.0,0003.93,0011.88,0002.79
2024-05-03 10:55:00,SystemResetWarning,0824.5,5.00,000.00,023.8,023.1,000.0,032.3,025.6,015.2,0000.0,0003.96,0011.21,0002.78
2024-05-03 10:56:00,SystemResetWarning,0824.5,5.00,000.00,023.8,023.1,000.0,032.3,025.6,015.2,0000.0,0003.93,0011.07,0002.77
2024-05-03 10:57:00,SystemResetWarning,0824.5,5.00,000.00,023.8,023.1,000.0,032.3,025.6,014.9,0000.0,0003.92,0011.33,0002.77
2024-05-03 10:58:00,SystemResetWarning,0824.5,5.00,000.00,023.8,023.1,000.0,032.3,025.6,014.6,0000.0,0003.93,0011.39,0002.76
2024-05-03 10:59:00,SystemResetWarning,0824.5,4.99,000.00,023.8,023.1,000.0,032.3,025.5,015.1,0000.0,0003.95,0011.80,0002.75
